This is the latest recevied weather packets stored in our database for station/object G4KVI. If no packets are shown the sender has not sent any weather packets the latest 10 day(s).
| Time | Temp. | Humidity | Pressure | Rain* | Wind** | Luminosity | Snow |
|---|---|---|---|---|---|---|---|
| 1787582705 | 22.78° C | 42% | 1017.7 hPa | 0 mm | - | 522 W/m² | - |
| 1787582405 | 22.78° C | 43% | 1017.8 hPa | 0 mm | - | 553 W/m² | - |
| 1787582105 | 22.78° C | 41% | 1017.9 hPa | 0 mm | - | 542 W/m² | - |
| 1787581805 | 23.33° C | 42% | 1017.9 hPa | 0 mm | - | 555 W/m² | - |
| 1787581505 | 23.33° C | 42% | 1017.9 hPa | 0 mm | - | 571 W/m² | - |
| 1787581205 | 23.33° C | 43% | 1018.1 hPa | 0 mm | - | 593 W/m² | - |
| 1787580905 | 22.78° C | 44% | 1018 hPa | 0 mm | - | 559 W/m² | - |
| 1787580605 | 22.22° C | 42% | 1018.6 hPa | 0 mm | - | 564 W/m² | - |
| 1787580305 | 22.78° C | 42% | 1018.6 hPa | 0 mm | - | 245 W/m² | - |
| 1787580005 | 22.22° C | 42% | 1018.7 hPa | 0 mm | - | 276 W/m² | - |
| 1787579705 | 22.22° C | 43% | 1019 hPa | 0 mm | - | 238 W/m² | - |
| 1787579405 | 22.22° C | 44% | 1018.9 hPa | 0 mm | - | 586 W/m² | - |
| 1787579105 | 22.22° C | 44% | 1019 hPa | 0 mm | - | 675 W/m² | - |
| 1787578805 | 22.78° C | 43% | 1019.3 hPa | 0 mm | - | 467 W/m² | - |
| 1787578505 | 22.22° C | 44% | 1018.9 hPa | 0 mm | - | 703 W/m² | - |
| 1787578205 | 22.22° C | 44% | 1019.2 hPa | 0 mm | - | 681 W/m² | - |
| 1787577905 | 21.67° C | 44% | 1019.1 hPa | 0 mm | - | 520 W/m² | - |
| 1787577605 | 21.67° C | 46% | 1019.1 hPa | 0 mm | - | 763 W/m² | - |
| 1787577305 | 21.67° C | 47% | 1019.4 hPa | 0 mm | - | 312 W/m² | - |
| 1787577005 | 21.67° C | 46% | 1019 hPa | 0 mm | - | 312 W/m² | - |
| 1787576705 | 21.67° C | 46% | 1019.3 hPa | 0 mm | - | 686 W/m² | - |
| 1787576405 | 21.67° C | 45% | 1019.3 hPa | 0 mm | - | 664 W/m² | - |
| 1787576105 | 21.67° C | 47% | 1019.3 hPa | 0 mm | - | 683 W/m² | - |
| 1787575805 | 21.67° C | 47% | 1019.5 hPa | 0 mm | - | 721 W/m² | - |
| 1787575505 | 21.11° C | 47% | 1019.7 hPa | 0 mm | - | 821 W/m² | - |
* Rain latest hour (hover to see other rain measurements)
** Current wind speed in m/s (hover to see current wind gust speed)